Miscellaneous Local Product
Issued by NWS North Platte, NE

Home | Current Version | Previous Version | Text Only | Print | Product List | Glossary On
Versions: 1 2 3 4 5 6 7 8 9 10 11 12 13 14 15 16 17 18 19 20 21 22 23 24 25 26 27 28 29 30 31 32 33 34 35 36 37 38 39 40 41 42 43 44 45 46 47 48 49 50
000
AXUS43 KLBF 300210
MISLBF


WESTERN AND NORTH CENTRAL NEBRASKA HOURLY WEATHER ROUNDUP
NATIONAL WEATHER SERVICE NORTH PLATTE NE
900 PM CDT TUE JUL 29 2014

***STATIONS NOT REPORTING VARIABLES SUCH AS SKY/WEATHER OR
PRESSURE ARE PROVIDED BY THE NEBRASKA DEPARTMENT OF
ROADS...RAWS...AND APRS NETWORKS...AND ARE NOT UNDER
NATIONAL WEATHER SERVICE QUALITY CONTROL***

...OBSERVATIONS IN AND NEAR THE EASTERN PANHANDLE OF NEBRASKA...

CITY           SKY/WX    TMP DP  RH WIND       PRES   REMARKS
PINE RIDGE     CLOUDY    65  55  70 SE3       30.22S
CHADRON        LGT RAIN  68  58  70 NE5       30.20F
ALLIANCE       CLOUDY    68  60  75 E5        30.20F
SIDNEY         CLOUDY    66  55  67 E17       30.20R
WHITECLAY        N/A     66  55  68 CALM        N/A
RUSHVILLE        N/A     68  51  53 NE10        N/A
GORDON           N/A     68  57  68 NE7         N/A
CRESCENT LAKE    N/A     65  62  91 NE6         N/A
LISCO            N/A     74  59  59 N12         N/A
BIG SPRINGS      N/A     76  63  64 E7          N/A
$$

...OBSERVATIONS IN NORTH CENTRAL NEBRASKA...

CITY           SKY/WX    TMP DP  RH WIND       PRES   REMARKS
VALENTINE      CLEAR     72  50  45 CALM      30.17S
THEDFORD       CLOUDY    71  57  61 E6        30.19S
AINSWORTH      PTCLDY    69  55  62 CALM      30.17S
O`NEILL        MOCLDY    69  55  59 E8        30.15S
ORD            CLOUDY    70  60  70 E3        30.13F
BROKEN BOW     CLOUDY    71  62  73 E3        30.15S
BROWNLEE         N/A     71  51  49 NE5         N/A
SPRINGVIEW       N/A     70  53  54 CALM        N/A
DUNNING          N/A     71  60  67 E5          N/A
ROSE             N/A     74  63  69 CALM        N/A
NEWPORT          N/A     71  58  62 NE3         N/A
SARGENT          N/A     71  58  64 CALM        N/A
COMSTOCK         N/A     75  64  69 E6          N/A
CHAMBERS         N/A     69  55  60 CALM        N/A
EWING            N/A     65  58  79 CALM        N/A
$$

...OBSERVATIONS IN SOUTHWEST NEBRASKA AND FAR NORTHEAST COLORADO...

CITY           SKY/WX    TMP DP  RH WIND       PRES   REMARKS
WRAY             N/A     66  64  94 SW10G21   30.14R THUNDER
HOLYOKE        FAIR      75  59  57 E17       30.14S
IMPERIAL       CLOUDY    76  58  53 E16       30.13R
OGALLALA       CLOUDY    71  58  64 E10       30.16R
NORTH PLATTE   CLOUDY    68  64  87 N5        30.14F
MCCOOK         CLOUDY    75  58  55 E15       30.11R
LEXINGTON      CLOUDY    73  61  65 E9        30.13F
PAXTON           N/A     74  62  66 NE6         N/A
SUTHERLAND       N/A     70  66  88 E5          N/A
BRADY            N/A     70  62  76 CALM        N/A
CALLAWAY         N/A     71  63  75 E6          N/A
$$

...SOME WEATHER OBSERVATIONS FROM AROUND THE REGION...

CITY           SKY/WX    TMP DP  RH WIND       PRES   REMARKS
DENVER         HVY RAIN  62  60  93 NW10      30.24R VSB 1
LARAMIE        LGT RAIN  54  52  93 N5        30.35S
CHEYENNE       LGT RAIN  59  56  89 NE7       30.31R FOG
SCOTTSBLUFF    LGT RAIN  66  62  87 SE7       30.22R
RAPID CITY     CLOUDY    67  51  56 SW8       30.22R
PIERRE         CLEAR     74  54  49 N5        30.11S
WINNER         FAIR      75  51  43 CALM      30.14S
SIOUX FALLS    PTCLDY    67  54  63 NW5       30.11F
OMAHA          MOCLDY    72  56  57 CALM      30.11S
GRAND ISLAND   CLOUDY    70  59  68 E5        30.14F
KANSAS CITY    MOCLDY    72  60  66 NE3       30.09S
WICHITA        MOCLDY    81  63  54 SE15      30.05R
HAYS           CLOUDY    81  57  44 E15G23    30.08R
LIBERAL        CLOUDY    73  63  68 SE12      30.10S
GOODLAND       CLOUDY    76  61  59 SE10      30.10S
$$



USA.gov is the U.S. government's official web portal to all federal, state and local government web resources and services.